Overview Statistics Trail Chart Weather Telemetry Raw packets
 

This is the latest recevied weather packets stored in our database for station/object M0HPP-13. If no packets are shown the sender has not sent any weather packets the latest 10 day(s).

<< 52 53 54 55 56 >>
Time Temp. Humidity Pressure Rain* Wind** Luminosity Snow
1787810886 13.89° C 99% 1016.1 hPa 0 mm - 23 W/m² -
1787810286 13.89° C 99% 1016 hPa 0 mm - 18 W/m² -
1787809686 13.89° C 99% 1016 hPa 0 mm - 11 W/m² -
1787809086 13.89° C 99% 1016.1 hPa 0 mm - 5 W/m² -
1787808486 13.89° C 99% 1016.1 hPa 0 mm - 3 W/m² -
1787807886 13.89° C 99% 1016.3 hPa 0 mm - 1 W/m² -
1787807286 13.89° C 99% 1016.2 hPa 0 mm - 1 W/m² -
1787806686 13.89° C 99% 1016.1 hPa 0 mm - 0 W/m² -
1787806086 13.89° C 99% 1016.2 hPa 0 mm - 0 W/m² -
1787805486 13.89° C 99% 1016.2 hPa 0 mm - 0 W/m² -
1787804886 13.89° C 99% 1016.3 hPa 0 mm - 0 W/m² -
1787804286 13.89° C 99% 1016.3 hPa 0 mm - 0 W/m² -
1787803686 13.89° C 99% 1016.5 hPa 0 mm - 0 W/m² -
1787803086 13.89° C 99% 1016.5 hPa 0 mm - 0 W/m² -
1787802486 13.89° C 99% 1016.6 hPa 0 mm - 0 W/m² -
1787801886 13.89° C 99% 1016.6 hPa 0 mm - 0 W/m² -
1787801286 13.89° C 99% 1016.6 hPa 0 mm - 0 W/m² -
1787800686 13.89° C 99% 1016.5 hPa 0 mm - 0 W/m² -
1787800086 13.89° C 99% 1016.6 hPa 0 mm - 0 W/m² -
1787799486 13.89° C 99% 1016.7 hPa 0 mm - 0 W/m² -
1787798886 13.89° C 99% 1016.8 hPa 0 mm - 0 W/m² -
1787798286 13.89° C 99% 1016.9 hPa 0 mm - 0 W/m² -
1787797686 13.89° C 99% 1016.9 hPa 0 mm - 0 W/m² -
1787797086 13.89° C 99% 1016.9 hPa 0 mm - 0 W/m² -
1787796486 13.89° C 99% 1016.9 hPa 0 mm - 0 W/m² -

* Rain latest hour (hover to see other rain measurements)
** Current wind speed in m/s (hover to see current wind gust speed)